Location: Newark
(46.1292°N, 1.0086°W)
Time: 09:44:27
(UTC+00:00)

Vanguard 3 - Pass Details

Date: 21 November 2019
Orbit: 508 x 3263 km, 33.3° (Epoch: 06 December)

Event Time Altitude Azimuth Distance (km) Brightness Sun altitude
Rises 11:59:49 0° 215° (SW) 6,412 12.6 23.9°
Reaches altitude 10° 12:04:17 10° 207° (SSW) 5,688 12.8 23.9°
Maximum altitude 12:20:02 36° 149° (SSE) 4,382 11.9 23.6°
Drops below altitude 10° 12:36:08 10° 92° (E) 5,850 11.5 23.1°
Sets 12:40:45 0° 85° (E) 6,611 11.6 23.0°
